« Back
NWS Peachtree City, Ga » Text Product » GA Regional Weather Roundup


Printer-friendly Version
Current Version              Previous Versions:   1  2  3  4  5  6  7  8  9  

Regional Weather Roundup

188
ASUS42 KFFC 180603
RWRGA
WEATHER ROUNDUP FOR GEORGIA
NATIONAL WEATHER SERVICE PEACHTREE CITY GA
200 AM EDT SAT APR 18 2015

NOTE: "FAIR" INDICATES FEW OR NO CLOUDS BELOW 12,000 FEET WITH NO
SIGNIFICANT WEATHER AND/OR OBSTRUCTIONS TO VISIBILITY.

* = USE WITH CAUTION. THE STATIONS MARKED WITH AN ASTERISK MAY NOT
REPORT WEATHER SUCH AS PRECIPITATION, FOG, OR THUNDER AND ARE NOT
QUALITY CONTROLLED BY NWS.

THE REMARK "TC" DENOTES TEMPERATURE READING IN DEGREES CELSIUS.

GAZ001>058-180700-
NORTH GEORGIA

CITY           SKY/WX    TMP DP  RH WIND       PRES   REMARKS
ATLANTA        LGT RAIN  63  60  90 E9        30.00F FOG
6HR MIN TEMP:  62; 6HR MAX TEMP:  63; 6HR PCP:  0.22;

ATHENS         CLOUDY    63  62  97 CALM      30.00F
6HR MIN TEMP:  62; 6HR MAX TEMP:  63; 6HR PCP:  0.37;

CHAMBLEE       LGT RAIN  62  61  96 CALM      30.01F
6HR MIN TEMP:  61; 6HR MAX TEMP:  62; 6HR PCP:  0.05;

PEACHTREE CITY CLOUDY    63  62  97 CALM      30.00F
6HR MIN TEMP:  62; 6HR MAX TEMP:  63; 6HR PCP:  0.20;

ROME           CLOUDY    62  61  96 CALM      30.01S
6HR MIN TEMP:  61; 6HR MAX TEMP:  62; 6HR PCP: TRACE;

WEST ATLANTA   LGT RAIN  62  61  96 N3        30.00F FOG
6HR MIN TEMP:  62; 6HR MAX TEMP:  63; 6HR PCP:  0.09;

GAINESVILLE    FOG       61  60  97 NE6       30.03F VSB 1
6HR MIN TEMP:  61; 6HR MAX TEMP:  62; 6HR PCP:  0.12;

CARTERSVILLE   CLOUDY    62  60  93 CALM      30.01F FOG
6HR MIN TEMP:  61; 6HR MAX TEMP:  62; 6HR PCP:  0.01;



CITY           SKY/WX    TMP DP  RH WIND       PRES   REMARKS
DALTON*        CLOUDY    59  59 100 CALM      30.03F FOG
MARIETTA       CLOUDY    63  63 100 E2        30.00F
BLAIRSVILLE*     N/A     60  54  80 CALM      30.06R HAZE
$$

GAZ059>098-102>109-180700-
CENTRAL GEORGIA

CITY           SKY/WX    TMP DP  RH WIND       PRES   REMARKS
AUGUSTA-BUSH   LGT RAIN  65  64  97 CALM      30.00F FOG
6HR MIN TEMP:  64; 6HR MAX TEMP:  66; 6HR PCP:  0.34;

AUGUSTA-DANIEL LGT RAIN  66  64  93 CALM      30.00F
6HR MIN TEMP:  66; 6HR MAX TEMP:  67; 6HR PCP:  0.53;

COLUMBUS       CLOUDY    63  62  97 E5        29.96F
6HR MIN TEMP:  62; 6HR MAX TEMP:  63; 6HR PCP:  0.11;

MACON          CLOUDY    64  64 100 NE3       29.96F
6HR MIN TEMP:  63; 6HR MAX TEMP:  64; 6HR PCP:  0.50;

ROBINS AFB     CLOUDY    65  65 100 SE3       29.96F


CITY           SKY/WX    TMP DP  RH WIND       PRES   REMARKS
LAGRANGE*      CLOUDY    66  65  99 CALM      29.99S
SYLVANIA*      LGT RAIN  66  66 100 CALM      30.02F
MILLEDGEVILLE* CLOUDY    64  64 100 CALM      30.00F
$$

GAZ099>101-110>166-180700-
SOUTH GEORGIA

CITY           SKY/WX    TMP DP  RH WIND       PRES   REMARKS
SAVANNAH       LGT RAIN  68  66  93 W3        30.01S
6HR MIN TEMP:  67; 6HR MAX TEMP:  72; 6HR PCP:  0.01;

VALDOSTA       FAIR      68  67  96 S3        29.96F
6HR MIN TEMP:  68; 6HR MAX TEMP:  71;

ALMA           CLOUDY    68  67  96 E3        29.98F
6HR MIN TEMP:  68; 6HR MAX TEMP:  70;

ST SIMONS      MOCLDY    68  66  93 CALM      29.99F
6HR MIN TEMP:  67; 6HR MAX TEMP:  68;

FT STEWART     RAIN      67  66  95 CALM      29.98F
ALBANY         CLOUDY    69  67  93 SW3       29.96F FOG
HUNTER AFB     FAIR      68  68 100 S1        29.98F
MOODY AFB      FAIR      68  66  93 SE2       29.95F
BRUNSWICK      FAIR      66  64  94 CALM      30.00F


CITY           SKY/WX    TMP DP  RH WIND       PRES   REMARKS
BAINBRIDGE*    FAIR      72  70  94 CALM      29.95F
MOULTRIE*      MOCLDY    68 N/A N/A S5        29.96F HAZE
VIDALIA*       RAIN      66  66 100 E7        30.00F
WAYCROSS*      MOCLDY    72  70  93 S3        29.98F
DOUGLAS*       CLOUDY    70  68  94 CALM      29.99F
$$



USA.gov is the U.S. government's official web portal to all federal, state and local government web resources and services.